Location: Cazeneuve
(43.1819°N, 0.8584°E)
Time: 21:20:00
(UTC+00:00)

Daily predictions for brighter satellites

Satellite Brightness Start Highest point End
(mag) Time Altitude Azimuth Time Altitude Azimuth Time Altitude Azimuth
BREEZE-M DEB (TANK) 3.5 17:40:38 10° NW 17:44:49 50° NNE 17:51:11 10° E
SAR-Lupe-4 3.8 17:46:53 10° SE 17:50:17 45° ENE 17:53:42 10° N
PSLV R/B 4.4 17:52:35 10° SE 17:56:00 26° ENE 17:59:24 10° NNE
Atlas Centaur 2 4.2 17:50:38 10° SW 17:57:14 29° S 18:03:10 10° ESE
CZ-2D R/B 3.1 17:54:15 10° S 17:57:17 68° W 18:00:20 10° NNW
COSMO-SKYMED 1 3.1 17:54:11 10° NNE 17:57:58 35° E 18:01:43 10° SSE
Cosmos 2221 Rocket 4.0 17:53:50 10° SSE 17:58:02 43° E 18:02:17 10° NNE
USA 234 3.4 17:51:43 10° SE 17:58:16 87° SW 18:04:52 10° NW
Okean 1 Rocket 3.4 17:54:26 10° N 17:58:37 41° ENE 18:02:44 10° SSE
Meteor 1-11 4.2 17:53:15 10° S 17:58:49 82° E 18:04:34 10° NNE
ARIANE 5 R/B 2.9 17:54:12 10° S 17:59:18 72° WSW 18:04:23 10° NNW
Okean 2 Rocket 3.2 17:56:42 10° N 18:00:59 52° ENE 18:05:15 10° SSE
Cosmos 1378 Rocket 4.0 18:01:05 10° SSW 18:05:21 64° W 18:09:38 10° N
BREEZE-M (TANK) 2.9 18:04:08 10° NW 18:06:29 42° NNE 18:11:53 10° E
Radarsat Rocket 4.2 18:01:23 10° SE 18:06:59 50° ENE 18:12:58 10° N
CZ-2D R/B 3.5 18:05:23 10° SE 18:09:07 47° ENE 18:12:57 10° N
NOSS 3-3 (A) 3.8 18:04:42 10° SW 18:09:45 75° NW 18:15:48 10° NE
BREEZE-M DEB (TANK) 3.5 18:08:57 10° WNW 18:12:38 66° SSW 18:17:31 10° SE
Sich 1 Rocket 3.7 18:09:42 10° N 18:14:13 59° E 18:18:41 10° SSE
Cosmos 2297 Rocket 2.3 18:09:57 10° S 18:15:28 58° ESE 18:21:02 10° NNE
Tiangong -0.8 18:14:00 10° SW 18:16:47 28° SSE 18:18:49 15° ESE
GP-B 4.0 18:13:05 10° SSW 18:17:20 52° W 18:21:37 10° NNW
Cosmos 1025 Rocket 3.0 18:13:48 10° S 18:18:05 87° W 18:22:27 10° N
Meteor 2-1 Rocket 4.3 18:12:55 10° N 18:18:46 77° E 18:24:40 10° SSE
SKYMED 2 3.9 18:16:39 10° N 18:21:00 72° WNW 18:25:18 10° SSW
Resurs 01 Rocket 2.1 18:17:25 10° SE 18:21:26 36° ENE 18:25:29 10° N
Cosmos 2346 Rocket 4.5 18:16:45 10° S 18:22:59 77° E 18:29:15 10° N
Cosmos 1356 Rocket 3.8 18:19:18 10° NNW 18:23:12 63° W 18:27:08 10° S
Resurs 1-3 3.5 18:19:57 10° SSE 18:24:14 90° WSW 18:28:34 10° NNW
Cosmos 2344 4.3 18:20:48 10° S 18:27:45 30° ESE 18:32:55 14° ENE
NOSS 3-4 (A) 4.2 18:24:34 10° NNW 18:31:00 45° NE 18:37:51 12° ESE
NOSS 3-4 (C) 4.2 18:24:50 10° NNW 18:31:17 45° NE 18:38:02 13° ESE
CRYOSAT 2 4.5 18:32:41 10° NNE 18:37:28 52° E 18:42:14 10° SSE
Helios 1A Rocket 3.3 18:39:28 27° ESE 18:39:28 27° ESE 18:42:03 10° SSE
Cosmos 1447 Rocket 4.5 18:35:26 10° S 18:41:33 86° W 18:47:44 10° N
Lacrosse 5 rocket 3.5 18:41:02 10° NW 18:42:36 12° NNW 18:44:11 10° N
Cosmos 2263 Rocket 3.1 18:41:11 10° SSE 18:45:44 25° ESE 18:46:41 24° E
Cosmos 1980 3.6 18:41:08 10° NNW 18:46:49 78° ENE 18:52:27 10° SSE
COSMOS 2428 3.8 18:42:13 10° NW 18:47:42 48° WSW 18:53:08 10° S
Meteor 1-27 4.2 18:42:07 10° N 18:47:53 67° ENE 18:53:40 10° SSE
SJ-6B 2.7 18:46:43 22° SE 18:48:33 43° ENE 18:51:51 10° N
Cosmos 2237 Rocket 2.1 18:46:30 10° NNW 18:52:13 79° ENE 18:57:54 10° SSE
CARTOSAT-1 3.6 18:48:53 10° S 18:53:04 77° WSW 18:57:18 10° NNW
Delta 2 Rocket 4.4 18:51:39 10° SW 18:54:03 20° S 18:54:42 19° SSE
Cosmos 2285 Rocket 4.2 18:50:21 10° NNW 18:56:47 78° WSW 19:03:08 10° SSE
Cosmos 44 Rocket 3.2 18:53:51 10° SSW 18:58:43 81° ESE 19:02:15 20° NE
Cosmos 1816 Rocket 4.5 18:57:19 10° SSE 19:03:15 54° E 19:09:17 10° NNE
USA 267 4.5 18:59:48 12° NE 19:04:52 32° NNW 19:10:30 10° WNW
BREEZE-M DEB (TANK) 4.2 19:05:14 10° WNW 19:09:20 81° NNE 19:16:43 24° ESE
Aureole 3 Rocket 4.0 19:06:47 10° NNW 19:10:16 37° W 19:13:12 10° SSW
Cosmos 2034 Rocket 4.2 19:04:22 10° N 19:10:17 46° ENE 19:13:44 24° SE
Cosmos 1072 Rocket 4.3 19:05:27 10° N 19:11:42 77° E 19:17:50 10° SSE
Cosmos 2227 Rocket 2.1 19:09:01 10° SSW 19:14:37 74° ESE 19:18:49 19° NNE
SL-16 R/B 2.7 19:12:02 10° N 19:17:17 37° ENE 19:17:17 37° ENE
Cosmos 1975 Rocket 3.1 19:16:06 10° S 19:20:28 79° W 19:24:49 10° N
Cosmos 1455 Rocket 4.0 19:17:53 10° NNW 19:22:01 48° W 19:26:08 10° SSW
Cosmos 1346 Rocket 4.3 19:24:28 10° S 19:25:51 22° S 19:25:51 22° S
CZ-4C R/B 4.1 19:27:28 10° WNW 19:30:48 19° NNW 19:34:43 10° NNE
DNEPR-1 R/B 4.0 19:28:32 10° NNW 19:33:31 71° NE 19:34:10 64° E
Cosmos 2228 3.3 19:30:50 10° NNW 19:34:58 63° W 19:37:09 27° SSW
Gbstr 26 Del rocket 4.3 19:29:17 10° SW 19:36:00 63° SE 19:37:44 50° E
Cosmos 783 Rocket 4.3 19:32:44 10° SSW 19:38:00 78° ESE 19:38:29 71° NE
Cosmos 1464 Rocket 4.2 19:32:25 10° NNW 19:38:46 73° W 19:45:01 10° S
SPOT 5 2.8 19:39:23 69° NNE 19:39:23 69° NNE 19:43:58 10° N
CZ-4B DEB 4.3 19:43:20 56° NNE 19:43:20 56° NNE 19:47:57 10° N
Atlas Centaur 2 3.9 19:39:10 10° WSW 19:45:06 26° SSW 19:46:52 23° S
BREEZE M DEB (TANK) 4.4 19:33:23 10° SSW 19:49:18 45° SSE 19:49:51 45° SE
CSL-04 Debris 4.0 19:49:11 79° SSE 19:49:31 87° ENE 19:54:59 10° NNW
Tiangong 0.8 19:50:18 10° WSW 19:51:08 17° WSW 19:51:08 17° WSW
CSL-04 Rocket 3.6 19:53:07 71° SSW 19:53:37 80° WSW 19:58:55 10° NNW
Resurs 01 Rocket 4.1 19:54:31 10° SW 19:57:53 21° W 20:01:17 10° NW
Cosmos 2297 Rocket 4.3 19:55:21 10° WSW 19:59:52 24° NW 20:04:26 10° N
BREEZE-M DEB (TANK) 4.3 19:51:44 10° WSW 20:07:34 84° NNW 20:07:59 78° NNE
Cosmos 2263 Rocket 3.1 20:23:48 10° SW 20:28:28 46° W 20:28:28 46° W
Cosmos 2344 4.0 20:34:04 10° SW 20:41:42 54° NW 20:43:00 48° NNW
Cosmos 2227 Rocket 4.4 20:55:12 10° W 20:59:15 20° NW 21:00:43 18° NNW
SL-16 R/B 4.1 20:56:16 10° NW 20:59:12 26° WNW 20:59:12 26° WNW
